Weather History for Corsicana, TX

Change the Weather History Date:

Wednesday, October 24, 2012

  Actual Average (KACT) Record (KACT)
Temperature  
Mean Temperature 75 °F 66 °F  
Max Temperature 84 °F 77 °F 91 °F (1992)
Min Temperature 66 °F 54 °F 32 °F (1917)
Degree Days  
Heating Degree Days 0 3  
Month to date heating degree days 37  
Since 1 July heating degree days 43  
Cooling Degree Days 10 4  
Month to date cooling degree days 138  
Year to date cooling degree days 2732  
Growing Degree Days 25 (Base 50)    
Moisture  
Dew Point 65 °F    
Average Humidity 75    
Maximum Humidity 94    
Minimum Humidity 51    
Precipitation  
Precipitation 0.00 in 0.12 in 2.21 in (1904)
Month to date precipitation 3.09  
Year to date precipitation 28.31  
Snow  
Snow 0.00 in 0.00 in 0.00 in ()
Month to date snowfall 0.0  
Since 1 July snowfall 0.0  
Since 1 September snowfall 0.0  
Snow Depth -    
Sea Level Pressure  
Sea Level Pressure 29.95 in    
Wind  
Wind Speed 10 mph (South)    
Max Wind Speed 17 mph    
Max Gust Speed 25 mph    
Visibility 10 miles    
Events      
T = Trace of Precipitation, MM = Missing Value Source: NWS Daily Summary

Daily Weather History Graph

Daily Weather History Graph

Search for Another Location

Airport:

Trip Planner

Search our weather history database for the weather conditions in past years. The results will help you decide how hot, cold, wet, or windy it might be!

Date:

Astronomy

Oct. 24, 2012 Rise Set
Actual Time 7:36 AM CDT 6:42 PM CDT
Civil Twilight 7:11 AM CDT 7:07 PM CDT
Nautical Twilight 6:42 AM CDT 7:36 PM CDT
Astronomical Twilight 6:14 AM CDT 8:04 PM CDT
Moon 3:44 PM CDT (10/24) 2:49 AM CDT (10/24)
Length of Visible Light 11h 56m
Length of Day
11h 06m
Waxing Gibbous, 76% of the Moon is Illuminated
Oct 24
Waxing Gibbous
Oct 29
Full
Nov 6
Last Quarter
Nov 13
New
Nov 20
First Quarter

Hourly Weather History & Observations

Time (CDT) Temp. Heat Index Dew Point Humidity Pressure Visibility Wind Dir Wind Speed Gust Speed Precip Events Conditions
12:53 AM 71.1 °F - 63.0 °F 75% 29.95 in 10.0 mi South 8.1 mph - N/A   Clear
1:53 AM 71.1 °F - 64.0 °F 78% 29.95 in 10.0 mi South 9.2 mph - N/A   Clear
2:53 AM 70.0 °F - 64.0 °F 81% 29.95 in 10.0 mi South 8.1 mph - N/A   Clear
3:53 AM 68.0 °F - 64.0 °F 87% 29.95 in 10.0 mi South 6.9 mph - N/A   Clear
4:53 AM 66.0 °F - 64.0 °F 93% 29.96 in 10.0 mi South 6.9 mph - N/A   Clear
5:49 AM 66.2 °F - 64.4 °F 94% 29.98 in 10.0 mi SSE 9.2 mph - N/A   Mostly Cloudy
5:53 AM 66.9 °F - 64.9 °F 93% 29.96 in 10.0 mi SSE 8.1 mph - N/A   Mostly Cloudy
6:53 AM 69.1 °F - 66.9 °F 93% 29.97 in 5.0 mi South 11.5 mph - N/A   Overcast
7:53 AM 69.1 °F - 66.9 °F 93% 29.99 in 5.0 mi SSE 9.2 mph - N/A   Overcast
8:53 AM 70.0 °F - 66.9 °F 90% 30.01 in 9.0 mi South 11.5 mph - N/A   Overcast
9:53 AM 72.0 °F - 68.0 °F 87% 30.02 in 9.0 mi SSE 12.7 mph - N/A   Overcast
10:05 AM 73.4 °F - 68.0 °F 83% 30.03 in 10.0 mi South 12.7 mph - N/A   Overcast
10:53 AM 75.0 °F - 68.0 °F 79% 30.01 in 10.0 mi South 10.4 mph - N/A   Overcast
11:48 AM 78.8 °F - 66.2 °F 65% 30.02 in 10.0 mi South 16.1 mph - N/A   Scattered Clouds
11:53 AM 79.0 °F - 68.0 °F 69% 30.01 in 10.0 mi South 17.3 mph 21.9 mph N/A   Partly Cloudy
12:34 PM 80.6 °F 82.7 °F 66.2 °F 61% 30.00 in 10.0 mi South 11.5 mph - N/A   Mostly Cloudy
12:53 PM 80.1 °F 82.1 °F 66.0 °F 62% 29.97 in 10.0 mi South 10.4 mph 20.7 mph N/A   Mostly Cloudy
1:18 PM 82.4 °F 84.6 °F 66.2 °F 58% 29.97 in 10.0 mi SSE 12.7 mph 21.9 mph N/A   Mostly Cloudy
1:53 PM 82.9 °F 85.0 °F 66.0 °F 56% 29.94 in 10.0 mi South 15.0 mph 21.9 mph N/A   Scattered Clouds
2:53 PM 82.9 °F 84.6 °F 64.9 °F 54% 29.91 in 10.0 mi South 13.8 mph 25.3 mph N/A   Partly Cloudy
4:53 PM 84.0 °F 85.4 °F 64.0 °F 51% 29.87 in 10.0 mi South 13.8 mph 20.7 mph N/A   Clear
5:53 PM 81.0 °F 82.2 °F 63.0 °F 54% 29.88 in 10.0 mi South 8.1 mph - N/A   Partly Cloudy
6:53 PM 75.0 °F - 64.0 °F 69% 29.88 in 10.0 mi SSE 6.9 mph - N/A   Clear
7:53 PM 73.9 °F - 64.0 °F 71% 29.88 in 10.0 mi SSE 6.9 mph - N/A   Clear
8:53 PM 72.0 °F - 64.0 °F 76% 29.88 in 10.0 mi SSE 6.9 mph - N/A   Clear
9:53 PM 72.0 °F - 64.0 °F 76% 29.88 in 10.0 mi SSE 8.1 mph - N/A   Clear
10:53 PM 72.0 °F - 64.0 °F 76% 29.89 in 10.0 mi SSE 11.5 mph - N/A   Scattered Clouds
11:53 PM 73.0 °F - 64.9 °F 76% 29.88 in 10.0 mi SSE 12.7 mph - N/A   Clear